User: anonymous   Login
Location: Caltech
(34.1382°N, 118.1253°W)
Time: 02:38:27
(UTC-07:00)
Language:

Courier 1B - Orbit

View from above orbital plane
View from above orbital plane
View from above satellite
View from above satellite

Ground track
Ground track

The orbit data is extracted from the following two-line orbital elements,

1 00058U 60013A   14293.99771988  .00000100  00000-0  18334-4 0  7958
2 00058 028.3271 138.0569 0165119 241.2574 117.1289 13.46282700660462
Epoch (UTC): 20 October 2014 23:56:42
Eccentricity: 0.0165119
inclination: 28.3271°
perigee height: 963 km
apogee height: 1209 km
right ascension of ascending node: 138.0569°
argument of perigee: 241.2574°
revolutions per day: 13.46282700
mean anomaly at epoch: 117.1289°
orbit number at epoch: 66046

The dashed part of the orbit path shows where the satellite is in the earth's shadow,  

DLR